DW4719 Vilanova I la Geltru ES current weather conditions

sailwx.info

Wind from 086

Air temperature 27.8° C
Dewpoint 20.6° C

Last reported at 2015-Aug-05 07:50 UTC.
Time now 2015-Aug-05 08:30 UTC

Location: N 41°13' E 001°44'.
View on Google Maps.

See reports from other nearby stations

  
Tides and Currents Weather Stations Pressure Air Temp Water Temp Dewpoint Dewpoint Depression Visibility Wind Speed Wind Dir Waves Ship Positions
date/time (UTC)wind fromknots sea level pressurealtimeterstation pressurevisibilityair tempwater tempwave heightnotes
2015-Aug-05 07:50 086 27.8
2015-Aug-05 07:45 086 27.2
2015-Aug-05 07:40 086 27.2
2015-Aug-05 07:35 080 26.7
2015-Aug-05 07:30 080 26.7
2015-Aug-05 07:25 083 26.7
2015-Aug-05 07:20 083 26.7
2015-Aug-05 07:15 083 26.1
2015-Aug-05 07:10 085 26.1
2015-Aug-05 07:05 086 26.1
2015-Aug-05 07:00 086 25.6
2015-Aug-05 06:55 086 25.6
2015-Aug-05 06:50 086 25.0
2015-Aug-05 06:45 086 25.0
2015-Aug-05 06:40 086 24.4
2015-Aug-05 06:35 086 23.9
2015-Aug-05 06:30 086 23.9
2015-Aug-05 06:25 086 23.9
2015-Aug-05 06:20 086 23.3
2015-Aug-05 06:15 086 23.3
2015-Aug-05 06:10 086 23.3
2015-Aug-05 06:05 095 22.8
2015-Aug-05 06:00 095 22.8
2015-Aug-05 05:55 095 22.8
2015-Aug-05 05:50 095 22.8
2015-Aug-05 05:45 095 22.8
2015-Aug-05 05:40 095 22.2
2015-Aug-05 05:35 096 22.2
2015-Aug-05 05:30 080 22.2
2015-Aug-05 05:25 082 22.2
2015-Aug-05 05:20 083 22.2
2015-Aug-05 05:15 086 22.2
2015-Aug-05 05:10 088 22.2
2015-Aug-05 05:05 088 22.2
2015-Aug-05 05:00 093 22.2
2015-Aug-05 04:55 093 22.2
2015-Aug-05 04:50 100 22.2
2015-Aug-05 04:45 100 22.2
2015-Aug-05 04:40 100 22.2
2015-Aug-05 04:35 100 22.2
2015-Aug-05 04:30 100 22.2
2015-Aug-05 04:25 100 22.2
2015-Aug-05 04:20 100 22.2
2015-Aug-05 04:15 100 22.2
2015-Aug-05 04:10 100 22.2
2015-Aug-05 04:05 100 22.2
2015-Aug-05 04:00 100 22.2
2015-Aug-05 03:55 102 22.2
2015-Aug-05 03:50 102 22.2
2015-Aug-05 03:45 102 22.2
2015-Aug-05 03:40 102 22.2
2015-Aug-05 03:35 102 22.2
2015-Aug-05 03:30 102 22.2
2015-Aug-05 03:25 102 22.2
2015-Aug-05 03:20 102 22.2
2015-Aug-05 03:15 100 22.2
2015-Aug-05 03:10 102 22.2
2015-Aug-05 03:05 102 22.2
2015-Aug-05 03:00 102 22.2
2015-Aug-05 02:55 102 22.2
2015-Aug-05 02:50 102 22.2
2015-Aug-05 02:46 102 22.2
2015-Aug-05 02:34 103 22.2
2015-Aug-05 02:30 103 22.8
2015-Aug-05 02:25 103 22.8
2015-Aug-05 02:20 104 22.8
2015-Aug-05 02:15 104 22.8
2015-Aug-05 02:10 104 22.8
2015-Aug-05 02:05 104 22.8
2015-Aug-05 02:00 104 22.8
2015-Aug-05 01:55 104 22.8
2015-Aug-05 01:50 104 22.8
2015-Aug-05 01:45 104 22.8
2015-Aug-05 01:40 104 22.8
2015-Aug-05 01:35 104 22.8
2015-Aug-05 01:30 104 22.8
2015-Aug-05 01:25 104 22.8
2015-Aug-05 01:20 104 23.3
2015-Aug-05 01:15 104 23.3
2015-Aug-05 01:10 104 23.3
2015-Aug-05 01:05 104 23.3
2015-Aug-05 01:00 106 23.3
2015-Aug-05 00:55 104 23.3
2015-Aug-05 00:50 106 23.3
2015-Aug-05 00:45 104 23.3
2015-Aug-05 00:40 104 23.3
2015-Aug-05 00:35 104 23.3
2015-Aug-05 00:30 104 23.3
2015-Aug-05 00:25 106 23.3
2015-Aug-05 00:20 107 23.3
2015-Aug-05 00:15 107 23.3
2015-Aug-05 00:10 107 23.3
2015-Aug-05 00:05 107 23.3
2015-Aug-05 00:00 107 23.3
2015-Aug-04 23:55 107 23.9
2015-Aug-04 23:50 107 23.9
2015-Aug-04 23:45 107 23.9
2015-Aug-04 23:40 107 23.9
2015-Aug-04 23:35 107 23.9
2015-Aug-04 23:30 107 23.9
2015-Aug-04 23:25 107 23.9
2015-Aug-04 23:20 107 23.9
2015-Aug-04 23:15 107 23.9
2015-Aug-04 23:10 107 23.9
2015-Aug-04 23:05 107 23.9
2015-Aug-04 23:00 107 23.9
2015-Aug-04 22:55 107 24.4
2015-Aug-04 22:50 107 24.4
2015-Aug-04 22:45 107 24.4
2015-Aug-04 22:40 107 24.4
2015-Aug-04 22:35 107 24.4
2015-Aug-04 22:30 107 24.4
2015-Aug-04 22:25 107 24.4
2015-Aug-04 22:20 107 24.4
2015-Aug-04 22:15 107 25.0
2015-Aug-04 22:10 107 25.0
2015-Aug-04 22:05 107 25.0
2015-Aug-04 22:00 107 25.0
2015-Aug-04 21:55 107 25.0
2015-Aug-04 21:50 107 25.0
2015-Aug-04 21:45 107 25.0
2015-Aug-04 21:40 107 25.0
2015-Aug-04 21:35 107 25.0
2015-Aug-04 21:30 107 25.0
2015-Aug-04 21:25 107 25.0
2015-Aug-04 21:20 107 25.0
2015-Aug-04 21:15 107 25.0
2015-Aug-04 21:10 107 25.0
2015-Aug-04 21:04 107 25.0
2015-Aug-04 21:00 107 25.0
2015-Aug-04 20:55 107 25.0
2015-Aug-04 20:50 107 25.0
2015-Aug-04 20:45 107 25.0
2015-Aug-04 20:40 107 25.0
2015-Aug-04 20:35 107 25.0
2015-Aug-04 20:30 107 25.6
2015-Aug-04 20:25 109 25.6
2015-Aug-04 20:20 110 25.6
2015-Aug-04 20:15 110 25.6
2015-Aug-04 20:10 110 25.6
2015-Aug-04 20:05 110 25.6
2015-Aug-04 20:00 110 25.6
2015-Aug-04 19:55 113 25.6
2015-Aug-04 19:50 113 25.6
2015-Aug-04 19:45 113 25.6
2015-Aug-04 19:40 116 25.6
2015-Aug-04 19:35 116 25.6
2015-Aug-04 19:30 110 25.6
2015-Aug-04 19:25 120 25.6
2015-Aug-04 19:20 106 25.6
2015-Aug-04 19:15 110 25.6
2015-Aug-04 19:10 112 26.1
2015-Aug-04 19:05 093 26.1
2015-Aug-04 19:00 127 26.1
2015-Aug-04 18:55 133 26.1
2015-Aug-04 18:50 119 26.1
2015-Aug-04 18:45 117 0 26.1
2015-Aug-04 18:40 116 2 26.1
2015-Aug-04 18:35 121 3 26.1
2015-Aug-04 18:30 126 2 26.1
2015-Aug-04 18:25 150 1 26.1
2015-Aug-04 18:20 137 0 26.1
2015-Aug-04 18:15 112 26.7
2015-Aug-04 18:10 148 2 26.7
2015-Aug-04 18:05 138 3 26.7
2015-Aug-04 18:00 140 4 26.7
2015-Aug-04 17:55 133 5 26.7
2015-Aug-04 17:50 148 3 26.7
2015-Aug-04 17:45 147 2 26.7
2015-Aug-04 17:40 133 3 26.7
2015-Aug-04 17:35 145 5 26.7
2015-Aug-04 17:30 151 5 26.7
2015-Aug-04 17:25 165 5 26.7
2015-Aug-04 17:20 151 3 27.2
2015-Aug-04 17:15 120 3 27.2
2015-Aug-04 17:10 124 4 27.2
2015-Aug-04 17:04 133 4 27.2
2015-Aug-04 17:00 124 3 27.2
2015-Aug-04 16:55 079 3 27.2
2015-Aug-04 16:50 106 4 27.2
2015-Aug-04 16:45 119 4 27.2
2015-Aug-04 16:40 152 5 27.2
2015-Aug-04 16:35 117 6 27.2
2015-Aug-04 16:30 086 5 27.2
2015-Aug-04 16:25 133 4 27.2
2015-Aug-04 16:20 099 5 27.2
2015-Aug-04 16:15 086 5 27.2
2015-Aug-04 16:10 130 6 27.2
2015-Aug-04 16:05 109 6 27.2
2015-Aug-04 16:00 121 6 27.2
2015-Aug-04 15:55 109 5 27.2
2015-Aug-04 15:50 127 4 27.8
2015-Aug-04 15:45 114 4 27.2
2015-Aug-04 15:40 083 4 27.8
2015-Aug-04 15:35 096 6 27.2
2015-Aug-04 15:30 131 6 27.2
2015-Aug-04 15:25 119 6 27.8
2015-Aug-04 15:20 134 4 27.8
2015-Aug-04 15:15 133 5 27.8
2015-Aug-04 15:10 150 6 27.2
2015-Aug-04 15:04 099 5 27.8
2015-Aug-04 15:00 103 6 27.8
2015-Aug-04 14:55 099 6 27.8
2015-Aug-04 14:50 117 6 27.2
2015-Aug-04 14:45 088 6 27.8
2015-Aug-04 14:40 092 6 27.8
2015-Aug-04 14:35 126 5 27.8
2015-Aug-04 14:30 124 6 27.8
2015-Aug-04 14:25 097 5 27.8
2015-Aug-04 14:20 107 4 28.3
2015-Aug-04 14:15 154 5 28.3
2015-Aug-04 14:10 114 5 28.3
2015-Aug-04 14:05 117 5 28.3
2015-Aug-04 14:00 137 6 28.3
2015-Aug-04 13:55 144 6 28.3
2015-Aug-04 13:50 124 6 28.3
2015-Aug-04 13:45 124 5 28.3
2015-Aug-04 13:40 082 5 28.9
2015-Aug-04 13:35 131 3 28.9
2015-Aug-04 13:30 158 3 28.3
2015-Aug-04 13:25 137 5 28.3
2015-Aug-04 13:20 113 4 28.3
2015-Aug-04 13:15 123 1 28.9
2015-Aug-04 13:10 104 1 28.9
2015-Aug-04 13:05 137 2 28.9
2015-Aug-04 13:00 157 1 28.9
2015-Aug-04 12:51 162 0 28.9
2015-Aug-04 12:50 145 0 28.9
2015-Aug-04 12:45 144 0 28.9
2015-Aug-04 12:40 150 1 28.3
2015-Aug-04 12:35 172 1 28.3
2015-Aug-04 12:30 124 1 28.3
2015-Aug-04 12:25 144 1 28.3
2015-Aug-04 12:20 136 0 28.9
2015-Aug-04 12:15 147 0 28.9
2015-Aug-04 12:10 124 0 28.9
2015-Aug-04 12:05 090 0 28.9
2015-Aug-04 12:00 127 1 28.9
2015-Aug-04 11:55 137 1 28.3
2015-Aug-04 11:50 130 0 28.3
2015-Aug-04 11:45 138 0 28.9
2015-Aug-04 11:40 152 0 28.9
2015-Aug-04 11:35 141 0 28.9
2015-Aug-04 11:30 148 0 28.9
2015-Aug-04 11:25 151 29.4
2015-Aug-04 11:20 176 0 29.4
2015-Aug-04 11:15 128 0 29.4
2015-Aug-04 11:10 174 29.4
2015-Aug-04 11:05 174 0 28.9
2015-Aug-04 11:00 196 0 29.4
2015-Aug-04 10:55 137 1 28.9
2015-Aug-04 10:50 128 1 29.4
2015-Aug-04 10:45 202 0 29.4
2015-Aug-04 10:40 151 29.4
2015-Aug-04 10:35 150 29.4
2015-Aug-04 10:30 209 28.9
2015-Aug-04 10:25 184 28.9
2015-Aug-04 10:20 193 28.9
2015-Aug-04 10:15 192 28.9
2015-Aug-04 10:10 195 28.3
2015-Aug-04 10:05 185 28.3
2015-Aug-04 10:00 154 28.3
2015-Aug-04 09:55 113 28.9
2015-Aug-04 09:50 144 28.9
2015-Aug-04 09:45 127 28.9
2015-Aug-04 09:40 128 28.9
2015-Aug-04 09:35 157 28.9
2015-Aug-04 09:30 131 28.3
2015-Aug-04 09:25 119 28.3
2015-Aug-04 09:20 127 28.3
2015-Aug-04 09:15 127 28.3
2015-Aug-04 09:10 124 28.3
2015-Aug-04 09:05 150 28.3
2015-Aug-04 09:00 158 28.9
2015-Aug-04 08:55 155 28.9
2015-Aug-04 08:50 133 28.9
2015-Aug-04 08:45 126 28.9
2015-Aug-04 08:40 127 29.4
2015-Aug-04 08:35 161 29.4
2015-Aug-04 08:30 229 29.4
2015-Aug-04 08:25 229 28.3
2015-Aug-04 08:20 230 27.8
2015-Aug-04 08:15 230 27.8
2015-Aug-04 08:03 232 27.2
2015-Aug-04 08:00 232 27.2
2015-Aug-04 07:55 230 26.7
2015-Aug-04 07:50 232 26.1
2015-Aug-04 07:45 230 25.6
2015-Aug-04 07:40 226 25.6
2015-Aug-04 07:35 223 25.6
2015-Aug-04 07:30 223 25.6
2015-Aug-04 07:25 223 25.6
2015-Aug-04 07:20 222 25.6
2015-Aug-04 07:15 222 25.6
2015-Aug-04 07:10 222 25.6
2015-Aug-04 07:05 222 25.6
2015-Aug-04 07:00 220 25.6
2015-Aug-04 06:55 220 25.6
2015-Aug-04 06:50 220 25.6
2015-Aug-04 06:45 220 25.6
2015-Aug-04 06:40 220 25.0
2015-Aug-04 06:35 220 25.0
2015-Aug-04 06:30 220 25.0
2015-Aug-04 06:25 222 25.0
2015-Aug-04 06:20 222 25.0
2015-Aug-04 06:15 220 25.0
2015-Aug-04 06:10 222 25.0
2015-Aug-04 06:05 222 25.0
2015-Aug-04 06:00 181 25.0
2015-Aug-04 05:55 181 25.0
2015-Aug-04 05:50 181 25.0
2015-Aug-04 05:45 181 25.0
2015-Aug-04 05:40 200 25.0
2015-Aug-04 05:35 199 25.0
2015-Aug-04 05:30 200 25.0
2015-Aug-04 05:25 208 24.4
2015-Aug-04 05:20 208 24.4
2015-Aug-04 05:15 208 24.4
2015-Aug-04 05:10 208 25.0
2015-Aug-04 05:05 208 25.0
2015-Aug-04 05:00 206 25.0
2015-Aug-04 04:55 206 25.0
2015-Aug-04 04:50 206 25.0
2015-Aug-04 04:45 206 25.6
2015-Aug-04 04:40 112 25.6
2015-Aug-04 04:35 112 25.6
2015-Aug-04 04:30 112 25.6
2015-Aug-04 04:25 112 25.6
2015-Aug-04 04:20 112 25.6
2015-Aug-04 04:15 112 25.6
2015-Aug-04 04:10 112 25.6
2015-Aug-04 04:05 112 25.6
2015-Aug-04 04:00 112 25.6
2015-Aug-04 03:55 110 26.1
2015-Aug-04 03:50 107 26.1
2015-Aug-04 03:45 107 26.1
2015-Aug-04 03:40 226 26.1
2015-Aug-04 03:35 226 26.1
2015-Aug-04 03:30 239 26.1
2015-Aug-04 03:25 248 25.6
2015-Aug-04 03:20 248 25.6
2015-Aug-04 03:15 248 25.6
2015-Aug-04 03:11 248 25.6
2015-Aug-04 03:05 234 26.1
2015-Aug-04 03:00 233 26.7
2015-Aug-04 02:55 209 26.7
2015-Aug-04 02:50 210 0 26.7
2015-Aug-04 02:45 222 0 26.7
2015-Aug-04 02:40 222 0 26.7
2015-Aug-04 02:35 213 27.2
2015-Aug-04 02:30 184 27.2
2015-Aug-04 02:25 184 27.2
2015-Aug-04 02:20 182 27.2
2015-Aug-04 02:15 155 27.2
2015-Aug-04 02:10 152 26.7
2015-Aug-04 02:05 148 26.7
2015-Aug-04 02:00 164 26.1
2015-Aug-04 01:55 168 25.6
2015-Aug-04 01:50 080 25.6
2015-Aug-04 01:45 088 25.0
2015-Aug-04 01:40 112 25.0
2015-Aug-04 01:35 112 25.0
2015-Aug-04 01:30 114 25.0
2015-Aug-04 01:25 145 25.0
2015-Aug-04 01:20 145 25.0
2015-Aug-04 01:15 145 25.0
2015-Aug-04 01:10 152 25.0
2015-Aug-04 01:05 152 25.6
2015-Aug-04 01:00 152 25.6
2015-Aug-04 00:55 152 25.0
2015-Aug-04 00:50 152 25.0
2015-Aug-04 00:45 257 25.0
2015-Aug-04 00:40 257 25.0
2015-Aug-04 00:35 257 25.6
2015-Aug-04 00:30 257 25.6
2015-Aug-04 00:25 257 25.6
2015-Aug-04 00:20 261 25.6
2015-Aug-04 00:15 260 0 25.6
2015-Aug-04 00:10 261 0 25.6
2015-Aug-04 00:05 241 25.6
2015-Aug-04 00:00 244 25.6
2015-Aug-03 23:55 247 26.1
2015-Aug-03 23:50 247 26.1
2015-Aug-03 23:45 247 26.1
2015-Aug-03 23:40 247 26.1
2015-Aug-03 23:35 248 26.1
2015-Aug-03 23:30 251 26.1
2015-Aug-03 23:25 250 25.6
2015-Aug-03 23:20 250 25.6
2015-Aug-03 23:15 251 25.6
2015-Aug-03 23:10 253 25.6
2015-Aug-03 23:05 253 25.6
2015-Aug-03 23:00 253 26.1
2015-Aug-03 22:55 254 26.1
2015-Aug-03 22:50 256 25.6
2015-Aug-03 22:45 256 26.1
2015-Aug-03 22:40 257 26.1
2015-Aug-03 22:35 257 26.1
2015-Aug-03 22:30 257 26.1
2015-Aug-03 22:25 257 26.1
2015-Aug-03 22:20 257 25.6
2015-Aug-03 22:15 257 25.6
2015-Aug-03 22:10 257 25.6
2015-Aug-03 22:05 257 25.6
2015-Aug-03 22:00 257 25.6
2015-Aug-03 21:55 257 26.1
2015-Aug-03 21:50 257 26.1
2015-Aug-03 21:45 257 26.1
2015-Aug-03 21:40 257 26.1
2015-Aug-03 21:35 250 26.1
2015-Aug-03 21:30 250 26.1
2015-Aug-03 21:25 250 26.1
2015-Aug-03 21:20 250 26.1
2015-Aug-03 21:15 250 26.1
2015-Aug-03 21:10 250 26.7
2015-Aug-03 21:05 250 26.7
2015-Aug-03 21:00 241 26.7
2015-Aug-03 20:55 248 26.7
2015-Aug-03 20:50 247 26.7
2015-Aug-03 20:45 247 26.7
2015-Aug-03 20:40 247 26.7
2015-Aug-03 20:35 247 26.7
2015-Aug-03 20:30 248 26.7
2015-Aug-03 20:25 247 26.7
2015-Aug-03 20:20 248 26.7
2015-Aug-03 20:15 248 26.7
2015-Aug-03 20:10 248 26.7
2015-Aug-03 20:05 248 26.7
2015-Aug-03 20:00 229 26.7
2015-Aug-03 19:55 229 26.7
2015-Aug-03 19:50 229 26.7
2015-Aug-03 19:45 229 26.7
2015-Aug-03 19:40 229 26.7
2015-Aug-03 19:35 229 26.7
2015-Aug-03 19:30 229 26.7
2015-Aug-03 19:25 229 26.7
2015-Aug-03 19:20 229 26.7
2015-Aug-03 19:15 229 26.7
2015-Aug-03 19:10 227 26.7
2015-Aug-03 19:05 227 26.7
2015-Aug-03 19:00 227 26.7
2015-Aug-03 18:55 227 26.7
2015-Aug-03 18:50 227 26.7
2015-Aug-03 18:45 226 26.7
2015-Aug-03 18:40 230 26.7
2015-Aug-03 18:35 237 26.7
2015-Aug-03 18:30 250 27.2
2015-Aug-03 18:25 250 27.2
2015-Aug-03 18:20 223 27.2
2015-Aug-03 18:15 224 27.2
2015-Aug-03 18:10 234 27.2
2015-Aug-03 18:05 239 27.2
2015-Aug-03 18:00 243 27.2
2015-Aug-03 17:55 230 27.2
2015-Aug-03 17:50 251 27.2
2015-Aug-03 17:45 251 0 27.2
2015-Aug-03 17:40 237 0 27.2
2015-Aug-03 17:35 256 0 27.2
2015-Aug-03 17:30 209 27.2
2015-Aug-03 17:25 247 27.2
2015-Aug-03 17:20 244 1 27.2
2015-Aug-03 17:15 248 2 27.2
2015-Aug-03 17:10 248 1 27.2
2015-Aug-03 17:05 261 0 27.2
2015-Aug-03 17:00 258 0 27.8
2015-Aug-03 16:55 246 2 27.2
2015-Aug-03 16:50 246 1 27.2
2015-Aug-03 16:45 237 1 27.8
2015-Aug-03 16:40 234 4 27.8
2015-Aug-03 16:35 219 4 27.8
2015-Aug-03 16:30 232 4 28.3
2015-Aug-03 16:25 202 5 27.8
2015-Aug-03 16:20 202 5 28.3
2015-Aug-03 16:15 227 4 28.3
2015-Aug-03 16:10 264 5 28.3
2015-Aug-03 16:05 271 6 28.3
2015-Aug-03 16:00 227 6 28.3
2015-Aug-03 15:55 274 6 28.3
2015-Aug-03 15:50 224 6 28.3
2015-Aug-03 15:45 254 5 28.3
2015-Aug-03 15:40 213 4 28.9
2015-Aug-03 15:35 213 2 28.9
2015-Aug-03 15:30 229 3 28.9
2015-Aug-03 15:25 243 3 28.9
2015-Aug-03 15:20 215 3 28.9
2015-Aug-03 15:15 188 4 28.9
2015-Aug-03 15:10 203 3 28.9
2015-Aug-03 15:05 234 2 28.9
2015-Aug-03 15:00 243 2 28.9
2015-Aug-03 14:55 232 1 28.9
2015-Aug-03 14:50 216 2 28.9
2015-Aug-03 14:45 248 2 28.9
2015-Aug-03 14:40 267 2 28.3
2015-Aug-03 14:35 217 2 28.3
2015-Aug-03 14:30 193 3 28.3
2015-Aug-03 14:25 227 3 28.9
2015-Aug-03 14:20 199 2 28.9
2015-Aug-03 14:15 227 2 28.9
2015-Aug-03 14:06 233 4 28.3
2015-Aug-03 14:05 223 3 28.3
2015-Aug-03 14:00 193 3 28.9
2015-Aug-03 13:55 234 2 28.9
2015-Aug-03 13:50 256 0 28.9
2015-Aug-03 13:45 185 0 28.9
2015-Aug-03 13:40 222 0 28.9
2015-Aug-03 13:35 186 1 28.3
2015-Aug-03 13:30 189 1 28.9
2015-Aug-03 13:25 217 1 28.9
2015-Aug-03 13:20 181 1 28.9
2015-Aug-03 13:15 209 1 28.9
2015-Aug-03 13:10 179 0 28.9
2015-Aug-03 13:05 219 0 28.9
2015-Aug-03 13:00 200 0 29.4
2015-Aug-03 12:55 179 0 28.9
2015-Aug-03 12:50 147 1 28.9
2015-Aug-03 12:45 176 1 28.9
2015-Aug-03 12:40 196 0 28.9
2015-Aug-03 12:35 220 1 28.9
2015-Aug-03 12:30 202 0 28.9
2015-Aug-03 12:25 189 0 28.9
2015-Aug-03 12:20 191 2 28.3
2015-Aug-03 12:15 176 2 28.3
2015-Aug-03 12:10 172 2 28.3
2015-Aug-03 12:05 192 2 28.3
2015-Aug-03 12:00 165 1 28.3
2015-Aug-03 11:55 193 1 28.3
2015-Aug-03 11:50 287 1 28.3
2015-Aug-03 11:45 208 0 28.9
2015-Aug-03 11:40 176 0 28.3
2015-Aug-03 11:35 176 0 28.3
2015-Aug-03 11:30 182 0 28.3
2015-Aug-03 11:25 196 0 28.3
2015-Aug-03 11:20 179 0 28.3
2015-Aug-03 11:15 196 0 28.3
2015-Aug-03 11:10 174 0 28.3
2015-Aug-03 11:05 205 0 28.9
2015-Aug-03 11:00 193 1 28.3
2015-Aug-03 10:55 203 0 28.3
2015-Aug-03 10:50 246 1 28.3
2015-Aug-03 10:45 176 1 28.3
2015-Aug-03 10:40 181 0 28.3
2015-Aug-03 10:35 208 0 28.9
2015-Aug-03 10:30 181 28.9
2015-Aug-03 10:25 182 28.3
2015-Aug-03 10:20 220 0 28.3
2015-Aug-03 10:15 206 0 28.3
2015-Aug-03 10:10 162 0 28.3
2015-Aug-03 10:05 151 0 28.3
2015-Aug-03 10:00 241 1 28.3
2015-Aug-03 09:55 186 1 27.8
2015-Aug-03 09:50 184 1 27.8
2015-Aug-03 09:45 167 0 28.3
2015-Aug-03 09:40 174 28.3
2015-Aug-03 09:35 184 28.3
2015-Aug-03 09:30 202 28.3
2015-Aug-03 09:25 198 0 28.3
2015-Aug-03 09:20 210 27.8
2015-Aug-03 09:15 217 0 27.8
2015-Aug-03 09:10 199 1 27.8
2015-Aug-03 09:05 168 0 27.8
2015-Aug-03 09:00 203 0 27.8
2015-Aug-03 08:55 193 0 27.8
2015-Aug-03 08:50 198 0 27.8
2015-Aug-03 08:45 192 1 27.8
2015-Aug-03 08:40 272 0 27.8
2015-Aug-03 08:35 172 0 27.8
2015-Aug-03 08:30 199 27.8
2015-Aug-03 08:25 192 27.8
2015-Aug-03 08:20 193 27.8
2015-Aug-03 08:15 219 27.8
2015-Aug-03 08:10 209 27.8
2015-Aug-03 08:05 195 27.8
2015-Aug-03 08:00 192 27.8